Weather History for Houston / Southwest Airport, TX

Change the Weather History Date:

Monday, October 29, 2012

  Actual Average (KHOU) Record (KHOU)
Temperature  
Mean Temperature 56 °F 68 °F  
Max Temperature 74 °F 78 °F 90 °F (1991)
Min Temperature 38 °F 57 °F 39 °F (1910)
Degree Days  
Heating Degree Days 9 2  
Month to date heating degree days 23  
Since 1 July heating degree days 24  
Cooling Degree Days 0 5  
Month to date cooling degree days 218  
Year to date cooling degree days 3043  
Growing Degree Days 6 (Base 50)    
Moisture  
Dew Point 31 °F    
Average Humidity 49    
Maximum Humidity 83    
Minimum Humidity 16    
Precipitation  
Precipitation 0.00 in 0.18 in 2.45 in (2009)
Month to date precipitation 5.37  
Year to date precipitation 41.36  
Sea Level Pressure  
Sea Level Pressure 30.22 in    
Wind  
Wind Speed 2 mph (NE)    
Max Wind Speed 8 mph    
Max Gust Speed -    
Visibility 10 miles    
Events      
T = Trace of Precipitation, MM = Missing Value Source: NWS Daily Summary

Daily Weather History Graph

Daily Weather History Graph

Search for Another Location

Airport:

Trip Planner

Search our weather history database for the weather conditions in past years. The results will help you decide how hot, cold, wet, or windy it might be!

Date:

Astronomy

Oct. 29, 2012 Rise Set
Actual Time 7:33 AM CDT 6:37 PM CDT
Civil Twilight 7:08 AM CDT 7:01 PM CDT
Nautical Twilight 6:40 AM CDT 7:29 PM CDT
Astronomical Twilight 6:12 AM CDT 7:57 PM CDT
Moon 6:33 PM CDT (10/29) 7:22 AM CDT (10/29)
Length of Visible Light 11h 53m
Length of Day
11h 04m
Full, 100% of the Moon is Illuminated
Oct 29
Full
Oct 29
Full
Nov 6
Last Quarter
Nov 13
New
Nov 20
First Quarter

Hourly Weather History & Observations

Time (CDT) Temp. Windchill Dew Point Humidity Pressure Visibility Wind Dir Wind Speed Gust Speed Precip Events Conditions
12:15 AM 41.4 °F - 33.6 °F 74% 30.23 in 10.0 mi Calm Calm - N/A   Clear
12:35 AM 41.4 °F - 30.0 °F 64% 30.23 in 10.0 mi Calm Calm - N/A   Clear
12:55 AM 41.2 °F - 30.7 °F 66% 30.23 in 10.0 mi Calm Calm - N/A   Clear
1:15 AM 41.2 °F - 32.2 °F 70% 30.23 in 10.0 mi Calm Calm - N/A   Clear
1:35 AM 40.8 °F - 30.9 °F 68% 30.23 in 10.0 mi Calm Calm - N/A   Clear
1:55 AM 40.5 °F - 31.6 °F 71% 30.23 in 10.0 mi Calm Calm - N/A   Clear
2:15 AM 39.7 °F - 30.6 °F 70% 30.23 in 10.0 mi Calm Calm - N/A   Clear
2:35 AM 39.9 °F - 29.3 °F 66% 30.23 in 10.0 mi Calm Calm - N/A   Clear
2:55 AM 38.7 °F - 30.9 °F 74% 30.23 in 10.0 mi Calm Calm - N/A   Clear
3:15 AM 38.7 °F - 31.8 °F 76% 30.22 in 10.0 mi Calm Calm - N/A   Clear
3:55 AM 38.5 °F - 31.8 °F 77% 30.23 in 10.0 mi Calm Calm - N/A   Clear
4:15 AM 40.1 °F - 35.4 °F 83% 30.23 in 10.0 mi Calm Calm - N/A   Clear
4:35 AM 41.9 °F - 36.9 °F 82% 30.24 in 10.0 mi Calm Calm - N/A   Clear
4:55 AM 42.6 °F 40.9 °F 37.2 °F 81% 30.24 in 10.0 mi NNE 3.5 mph - N/A   Clear
5:15 AM 43.3 °F 41.7 °F 37.0 °F 78% 30.25 in 10.0 mi NE 3.5 mph - N/A   Clear
5:35 AM 43.2 °F - 36.7 °F 78% 30.25 in 10.0 mi Calm Calm - N/A   Clear
5:55 AM 43.0 °F - 36.7 °F 78% 30.25 in 10.0 mi Calm Calm - N/A   Clear
6:15 AM 41.4 °F - 35.1 °F 78% 30.24 in 10.0 mi Calm Calm - N/A   Clear
6:35 AM 41.0 °F 39.0 °F 35.1 °F 79% 30.25 in 10.0 mi NNE 3.5 mph - N/A   Clear
6:55 AM 41.9 °F - 36.0 °F 79% 30.26 in 10.0 mi Calm Calm - N/A   Clear
7:15 AM 42.4 °F - 36.5 °F 79% 30.25 in 10.0 mi Calm Calm - N/A   Clear
7:35 AM 41.9 °F - 36.1 °F 80% 30.27 in 10.0 mi Calm Calm - N/A   Clear
7:55 AM 42.1 °F - 37.0 °F 82% 30.27 in 10.0 mi Calm Calm - N/A   Clear
8:15 AM 45.0 °F - 38.5 °F 78% 30.27 in 10.0 mi Calm Calm - N/A   Clear
8:55 AM 51.6 °F - 42.3 °F 70% 30.28 in 10.0 mi Calm Calm - N/A   Clear
9:15 AM 54.5 °F - 40.8 °F 60% 30.28 in 10.0 mi ENE 3.5 mph - N/A   Clear
9:35 AM 56.8 °F - 38.8 °F 51% 30.29 in 10.0 mi East 8.1 mph - N/A   Clear
9:55 AM 58.8 °F - 36.9 °F 44% 30.29 in 10.0 mi NE 8.1 mph - N/A   Clear
10:15 AM 59.9 °F - 33.1 °F 36% 30.29 in 10.0 mi ENE 8.1 mph - N/A   Clear
10:35 AM 61.7 °F - 33.6 °F 35% 30.29 in 10.0 mi ENE 5.8 mph - N/A   Clear
11:15 AM 63.9 °F - 29.8 °F 28% 30.29 in 10.0 mi ENE 6.9 mph - N/A   Clear
11:35 AM 64.9 °F - 29.8 °F 27% 30.28 in 10.0 mi NNE 5.8 mph - N/A   Clear
11:55 AM 66.2 °F - 26.1 °F 22% 30.28 in 10.0 mi East 6.9 mph - N/A   Clear
12:15 PM 67.1 °F - 27.0 °F 22% 30.27 in 10.0 mi East 4.6 mph - N/A   Clear
12:35 PM 68.7 °F - 26.4 °F 20% 30.26 in 10.0 mi East 6.9 mph - N/A   Clear
12:55 PM 70.0 °F - 26.2 °F 19% 30.25 in 10.0 mi East 3.5 mph - N/A   Clear
1:15 PM 69.8 °F - 23.7 °F 18% 30.24 in 10.0 mi NNE 6.9 mph - N/A   Clear
1:35 PM 70.7 °F - 24.6 °F 18% 30.23 in 10.0 mi NE 6.9 mph - N/A   Clear
1:55 PM 72.7 °F - 24.8 °F 17% 30.22 in 10.0 mi North 5.8 mph - N/A   Clear
2:15 PM 73.6 °F - 23.9 °F 16% 30.21 in 10.0 mi East 5.8 mph - N/A   Clear
2:35 PM 73.6 °F - 25.2 °F 16% 30.20 in 10.0 mi East 3.5 mph - N/A   Clear
2:55 PM 73.9 °F - 24.6 °F 16% 30.19 in 10.0 mi Calm Calm - N/A   Clear
3:15 PM 74.7 °F - 25.2 °F 16% 30.18 in 10.0 mi Calm Calm - N/A   Clear
3:35 PM 74.1 °F - 26.4 °F 17% 30.17 in 10.0 mi NE 5.8 mph - N/A   Clear
3:55 PM 74.1 °F - 25.3 °F 16% 30.17 in 10.0 mi NNE 5.8 mph - N/A   Clear
4:15 PM 74.7 °F - 25.5 °F 16% 30.16 in 10.0 mi NNE 5.8 mph - N/A   Clear
4:55 PM 73.4 °F - 25.5 °F 17% 30.15 in 10.0 mi NE 4.6 mph - N/A   Clear
5:15 PM 73.4 °F - 25.5 °F 17% 30.15 in 10.0 mi Calm Calm - N/A   Clear
5:35 PM 72.7 °F - 26.4 °F 18% 30.15 in 10.0 mi Calm Calm - N/A   Clear
5:55 PM 70.5 °F - 29.7 °F 22% 30.15 in 10.0 mi NNE 3.5 mph - N/A   Clear
6:15 PM 69.4 °F - 29.1 °F 22% 30.15 in 10.0 mi Calm Calm - N/A   Clear
6:35 PM 65.8 °F - 30.0 °F 26% 30.15 in 10.0 mi Calm Calm - N/A   Clear
6:55 PM 60.6 °F - 30.4 °F 32% 30.15 in 10.0 mi Calm Calm - N/A   Clear
7:15 PM 56.1 °F - 23.5 °F 28% 30.15 in 10.0 mi Calm Calm - N/A   Clear
7:35 PM 53.1 °F - 25.7 °F 35% 30.15 in 10.0 mi Calm Calm - N/A   Clear
10:35 PM 43.9 °F - 31.3 °F 61% 30.17 in 10.0 mi Calm Calm - N/A   Clear
10:55 PM 43.7 °F - 32.2 °F 64% 30.17 in 10.0 mi Calm Calm - N/A   Clear
11:15 PM 42.4 °F - 30.9 °F 64% 30.17 in 10.0 mi Calm Calm - N/A   Clear
11:35 PM 42.8 °F - 37.4 °F 81% 30.17 in 10.0 mi Calm Calm - N/A   Clear
11:55 PM 41.9 °F - 33.1 °F 71% 30.16 in 10.0 mi Calm Calm - N/A   Clear